When you browse on this site, cookies collect data to enhance your experience and personalize the content and advertising you see.
Visit our Privacy Policy to learn more. By continuing to use the site, you agree to this use of cookies and data.
  • In Hungary
  • List of Countries
  • For 7 days
  • Water Temperature
  • Satellite Maps
  • Weather Map
  • News
  • Weather Widgets
  • user-avatar
    Login

    Hourly Weather Bolshoy Ray

    Today, 22 November, Thursday

    Time Temperature Precipitation Wind Pressure Humidity
    00:00 -5°C° 0 mm 3 mps 752 mmHg 78%
    01:00 -5°C° 0 mm 3 mps 752 mmHg 78%
    02:00 -5°C° 0 mm 3 mps 752 mmHg 78%
    03:00 -5°C° 0 mm 3 mps 752 mmHg 79%
    04:00 -5°C° 0 mm 4 mps 751 mmHg 79%
    05:00 -5°C° 0 mm 4 mps 751 mmHg 80%
    06:00 -5°C° 0 mm 4 mps 751 mmHg 82%
    07:00 -7°C° 0 mm 4 mps 750 mmHg 85%
    08:00 -7°C° 0 mm 4 mps 750 mmHg 87%
    09:00 -5°C° 0 mm 4 mps 750 mmHg 85%
    10:00 -6°C° 0 mm 5 mps 749 mmHg 84%
    11:00 -5°C° 0 mm 5 mps 749 mmHg 82%
    12:00 -5°C° 0 mm 5 mps 749 mmHg 82%
    13:00 -5°C° 0 mm 5 mps 748 mmHg 82%
    14:00 -5°C° 0 mm 6 mps 748 mmHg 82%
    15:00 -5°C° 0 mm 5 mps 748 mmHg 84%
    16:00 -6°C° 0 mm 5 mps 748 mmHg 86%
    17:00 -6°C° 0 mm 5 mps 748 mmHg 88%
    18:00 -6°C° 0 mm 5 mps 748 mmHg 87%
    19:00 -6°C° 0 mm 5 mps 748 mmHg 86%
    20:00 -5°C° 0 mm 5 mps 748 mmHg 85%
    21:00 -5°C° 0 mm 5 mps 748 mmHg 85%
    22:00 -5°C° 0 mm 5 mps 748 mmHg 85%
    23:00 -4°C° 0 mm 4 mps 748 mmHg 85%

    Tomorrow, 23 November, Friday

    Time Temperature Precipitation Wind Pressure Humidity
    00:00 -4°C° 0 mm 4 mps 748 mmHg 87%
    01:00 -4°C° 0 mm 4 mps 749 mmHg 88%
    02:00 -4°C° 0 mm 4 mps 749 mmHg 90%
    03:00 -4°C° 0 mm 3 mps 749 mmHg 91%
    04:00 -4°C° 0 mm 3 mps 749 mmHg 91%
    05:00 -2°C° 0 mm 3 mps 750 mmHg 92%
    06:00 -4°C° 0 mm 3 mps 750 mmHg 93%
    07:00 -3°C° 0 mm 2 mps 751 mmHg 94%
    08:00 -3°C° 0 mm 2 mps 751 mmHg 95%
    09:00 -2°C° 0 mm 2 mps 751 mmHg 92%
    10:00 -2°C° 0 mm 2 mps 752 mmHg 89%
    11:00 +1°C° 0 mm 1 mps 752 mmHg 86%
    12:00 +1°C° 0 mm 1 mps 752 mmHg 86%
    13:00 +1°C° 0 mm 1 mps 752 mmHg 86%
    14:00 +1°C° 0 mm 1 mps 752 mmHg 85%
    15:00 +1°C° 0 mm 1 mps 752 mmHg 87%
    16:00 -2°C° 0 mm 2 mps 752 mmHg 89%
    17:00 -3°C° 0 mm 2 mps 752 mmHg 91%
    18:00 -3°C° 0 mm 2 mps 752 mmHg 91%
    19:00 -3°C° 0 mm 2 mps 752 mmHg 91%
    20:00 -4°C° 0 mm 3 mps 752 mmHg 91%
    21:00 -4°C° 0 mm 3 mps 751 mmHg 92%
    22:00 -4°C° 0 mm 3 mps 751 mmHg 92%
    23:00 -4°C° 0 mm 4 mps 751 mmHg 93%

    Day after tomorrow, 24 November, Saturday

    Time Temperature Precipitation Wind Pressure Humidity
    00:00 -4°C° 0 mm 4 mps 751 mmHg 93%
    01:00 -4°C° 0 mm 4 mps 750 mmHg 93%
    02:00 -5°C° 0 mm 5 mps 750 mmHg 93%
    03:00 -6°C° 0 mm 5 mps 749 mmHg 92%
    04:00 -6°C° 0 mm 5 mps 749 mmHg 91%
    05:00 -6°C° 0 mm 5 mps 748 mmHg 90%
    06:00 -7°C° 0 mm 5 mps 748 mmHg 90%
    07:00 -7°C° 0 mm 5 mps 747 mmHg 90%
    08:00 -7°C° 0 mm 5 mps 747 mmHg 90%
    09:00 -7°C° 0 mm 5 mps 747 mmHg 88%
    10:00 -7°C° 0 mm 5 mps 746 mmHg 86%
    11:00 -7°C° 0 mm 5 mps 746 mmHg 85%
    12:00 -6°C° 0 mm 5 mps 745 mmHg 82%
    13:00 -5°C° 0 mm 4 mps 745 mmHg 80%
    14:00 -4°C° 0 mm 4 mps 744 mmHg 78%
    15:00 -4°C° 0 mm 4 mps 744 mmHg 79%
    16:00 -4°C° 0 mm 4 mps 743 mmHg 80%
    17:00 -4°C° 0 mm 4 mps 743 mmHg 80%
    18:00 -4°C° 0 mm 4 mps 743 mmHg 82%
    19:00 -4°C° 0 mm 4 mps 743 mmHg 84%
    20:00 -4°C° 0 mm 4 mps 743 mmHg 86%
    21:00 -4°C° 0 mm 3 mps 743 mmHg 87%
    22:00 -4°C° 0 mm 3 mps 743 mmHg 89%
    23:00 -4°C° 0 mm 3 mps 743 mmHg 90%

    25 November, Sunday

    Time Temperature Precipitation Wind Pressure Humidity
    00:00 -3°C° 0 mm 2 mps 743 mmHg 91%
    01:00 -3°C° 0 mm 2 mps 743 mmHg 92%
    02:00 -1°C° 0 mm 1 mps 742 mmHg 93%
    03:00 -1°C° 0 mm 1 mps 742 mmHg 93%
    04:00 -1°C° 0 mm 1 mps 742 mmHg 94%
    05:00 -1°C° 0 mm 1 mps 742 mmHg 95%
    06:00 -1°C° 0.1 mm 1 mps 742 mmHg 95%
    07:00 -2°C° 0.1 mm 0 mps 742 mmHg 95%
    08:00 -1°C° 0.1 mm 0 mps 742 mmHg 95%
    09:00 -1°C° 0.1 mm 0 mps 742 mmHg 94%
    10:00 -1°C° 0.1 mm 0 mps 742 mmHg 92%
    11:00 -1°C° 0.1 mm 0 mps 742 mmHg 91%
    12:00 0°C° 0.1 mm 1 mps 742 mmHg 91%
    13:00 +1°C° 0.1 mm 1 mps 742 mmHg 91%
    14:00 +1°C° 0.1 mm 1 mps 742 mmHg 91%
    15:00 0°C° 0 mm 1 mps 742 mmHg 91%
    16:00 -2°C° 0 mm 2 mps 742 mmHg 92%
    17:00 -2°C° 0 mm 2 mps 742 mmHg 93%
    18:00 -2°C° 0 mm 2 mps 742 mmHg 91%
    19:00 -3°C° 0 mm 2 mps 742 mmHg 89%
    20:00 -4°C° 0 mm 3 mps 742 mmHg 88%
    21:00 -3°C° 0 mm 2 mps 742 mmHg 87%
    22:00 -3°C° 0 mm 2 mps 742 mmHg 86%
    23:00 -4°C° 0 mm 2 mps 742 mmHg 85%

    26 November, Monday

    Time Temperature Precipitation Wind Pressure Humidity
    00:00 -4°C° 0 mm 2 mps 743 mmHg 86%
    01:00 -4°C° 0 mm 2 mps 743 mmHg 87%
    02:00 -4°C° 0 mm 2 mps 743 mmHg 87%
    03:00 -6°C° 0 mm 3 mps 743 mmHg 89%
    04:00 -6°C° 0 mm 3 mps 743 mmHg 91%
    05:00 -6°C° 0 mm 3 mps 743 mmHg 92%
    06:00 -7°C° 0 mm 3 mps 743 mmHg 93%
    07:00 -7°C° 0 mm 3 mps 743 mmHg 93%
    08:00 -6°C° 0 mm 2 mps 743 mmHg 94%
    09:00 -6°C° 0 mm 2 mps 743 mmHg 91%
    10:00 -5°C° 0 mm 2 mps 743 mmHg 88%
    11:00 -5°C° 0 mm 2 mps 744 mmHg 85%
    12:00 -4°C° 0 mm 2 mps 744 mmHg 84%
    13:00 -4°C° 0 mm 2 mps 743 mmHg 83%
    14:00 -4°C° 0 mm 2 mps 743 mmHg 83%
    15:00 -5°C° 0 mm 2 mps 743 mmHg 86%
    16:00 -5°C° 0 mm 2 mps 743 mmHg 89%
    17:00 -6°C° 0 mm 2 mps 743 mmHg 92%
    18:00 -6°C° 0 mm 2 mps 743 mmHg 92%
    19:00 -4°C° 0 mm 1 mps 743 mmHg 92%
    20:00 -6°C° 0 mm 1 mps 743 mmHg 92%
    21:00 -6°C° 0 mm 1 mps 743 mmHg 92%
    22:00 -6°C° 0 mm 1 mps 743 mmHg 92%
    23:00 -6°C° 0 mm 1 mps 743 mmHg 92%

    27 November, Tuesday

    Time Temperature Precipitation Wind Pressure Humidity
    00:00 -6°C° 0 mm 1 mps 743 mmHg 92%
    01:00 -6°C° 0 mm 0 mps 743 mmHg 92%
    02:00 -7°C° 0 mm 0 mps 743 mmHg 92%
    03:00 -7°C° 0 mm 1 mps 743 mmHg 92%
    04:00 -7°C° 0 mm 1 mps 743 mmHg 92%
    05:00 -7°C° 0 mm 1 mps 743 mmHg 93%
    06:00 -7°C° 0 mm 1 mps 743 mmHg 93%
    07:00 -7°C° 0 mm 1 mps 743 mmHg 93%
    08:00 -8°C° 0 mm 2 mps 743 mmHg 93%
    09:00 -7°C° 0 mm 2 mps 744 mmHg 90%
    10:00 -7°C° 0 mm 2 mps 744 mmHg 87%
    11:00 -6°C° 0 mm 2 mps 745 mmHg 84%
    12:00 -6°C° 0 mm 2 mps 745 mmHg 84%
    13:00 -5°C° 0 mm 2 mps 745 mmHg 83%
    14:00 -5°C° 0 mm 2 mps 745 mmHg 83%
    15:00 -6°C° 0 mm 2 mps 745 mmHg 85%
    16:00 -6°C° 0 mm 2 mps 746 mmHg 88%
    17:00 -7°C° 0 mm 2 mps 746 mmHg 90%
    18:00 -7°C° 0 mm 2 mps 747 mmHg 91%
    19:00 -7°C° 0 mm 2 mps 747 mmHg 91%
    20:00 -7°C° 0 mm 2 mps 748 mmHg 91%
    21:00 -8°C° 0 mm 2 mps 748 mmHg 91%
    22:00 -8°C° 0 mm 2 mps 749 mmHg 92%
    23:00 -8°C° 0 mm 2 mps 750 mmHg 92%
    Show more